PTU823 CYXU-CYXU

Flight info

Callsign PTU823
Flight time 0h 9m
Altitude 2000
Route VFR CIRCUITS
Aircraft C152

Departure

Time 2026-04-24 02:33
Airport London International Airport (CYXU)

Arrival

Time 2026-04-24 02:42
Airport London International Airport (CYXU)
Time Latitude Longitude Altitude Speed Heading
2026-04-24 02:26 43.03566 -81.16272 908 ft 0 kts 73°
2026-04-24 02:27 43.03565 -81.16227 907 ft 9 kts 84°
2026-04-24 02:27 43.03616 -81.16188 908 ft 14 kts 347°
2026-04-24 02:28 43.03656 -81.16071 908 ft 23 kts 80°
2026-04-24 02:28 43.03682 -81.15879 907 ft 24 kts 80°
2026-04-24 02:28 43.03721 -81.15728 906 ft 13 kts 23°
2026-04-24 02:28 43.03779 -81.15785 906 ft 16 kts 318°
2026-04-24 02:29 43.03874 -81.15901 909 ft 17 kts 317°
2026-04-24 02:29 43.03974 -81.16010 911 ft 15 kts 332°
2026-04-24 02:29 43.04063 -81.16012 916 ft 3 kts
2026-04-24 02:31 43.04099 -81.15997 917 ft 14 kts 31°
2026-04-24 02:31 43.04127 -81.15882 916 ft 11 kts 138°
2026-04-24 02:31 43.04059 -81.15801 913 ft 12 kts 139°
2026-04-24 02:31 43.04029 -81.15765 913 ft 0 kts 141°
2026-04-24 02:32 43.03946 -81.15668 911 ft 42 kts 139°
2026-04-24 02:32 43.03652 -81.15305 1010 ft 63 kts 138°
2026-04-24 02:33 43.03312 -81.14928 1229 ft 59 kts 143°
2026-04-24 02:33 43.03145 -81.14479 1425 ft 59 kts 84°
2026-04-24 02:33 43.03360 -81.13965 1571 ft 67 kts 60°
2026-04-24 02:33 43.03654 -81.13421 1758 ft 69 kts 46°
2026-04-24 02:34 43.04150 -81.13304 1903 ft 82 kts 345°
2026-04-24 02:34 43.04702 -81.13644 2000 ft 88 kts 326°
2026-04-24 02:34 43.05215 -81.14114 2051 ft 90 kts 321°
2026-04-24 02:34 43.05681 -81.14631 2066 ft 84 kts 316°
2026-04-24 02:35 43.06127 -81.15161 1926 ft 85 kts 318°
2026-04-24 02:35 43.06550 -81.15654 1882 ft 74 kts 318°
2026-04-24 02:35 43.06927 -81.16071 1850 ft 69 kts 313°
2026-04-24 02:35 43.07049 -81.16721 1741 ft 80 kts 251°
2026-04-24 02:36 43.06743 -81.17297 1632 ft 72 kts 208°
2026-04-24 02:36 43.06260 -81.17371 1486 ft 77 kts 172°
2026-04-24 02:36 43.05731 -81.17253 1365 ft 75 kts 166°
2026-04-24 02:36 43.05242 -81.17063 1233 ft 73 kts 153°
2026-04-24 02:37 43.04842 -81.16716 1124 ft 64 kts 142°
2026-04-24 02:37 43.04498 -81.16324 1053 ft 66 kts 138°
2026-04-24 02:37 43.04160 -81.15914 960 ft 65 kts 138°
2026-04-24 02:37 43.03830 -81.15531 910 ft 58 kts 140°
2026-04-24 02:38 43.03547 -81.15135 1055 ft 59 kts 132°
2026-04-24 02:38 43.03261 -81.14751 1241 ft 60 kts 138°
2026-04-24 02:38 43.02974 -81.14334 1430 ft 60 kts 108°
2026-04-24 02:38 43.03156 -81.13850 1589 ft 69 kts 19°
2026-04-24 02:39 43.03640 -81.13947 1719 ft 73 kts 347°
2026-04-24 02:39 43.04133 -81.14155 1869 ft 77 kts 336°
2026-04-24 02:39 43.04565 -81.14616 1995 ft 85 kts 315°
2026-04-24 02:39 43.04985 -81.15171 2015 ft 80 kts 310°
2026-04-24 02:40 43.05333 -81.15672 1963 ft 67 kts 309°
2026-04-24 02:40 43.05653 -81.16169 1925 ft 73 kts 306°
2026-04-24 02:40 43.05968 -81.16775 1854 ft 79 kts 297°
2026-04-24 02:40 43.05971 -81.17434 1796 ft 72 kts 236°
2026-04-24 02:41 43.05563 -81.17776 1660 ft 72 kts 176°
2026-04-24 02:41 43.05127 -81.17436 1443 ft 76 kts 126°
2026-04-24 02:41 43.04852 -81.16883 1327 ft 65 kts 129°
2026-04-24 02:41 43.04585 -81.16465 1186 ft 52 kts 134°
2026-04-24 02:42 43.04309 -81.16113 1041 ft 52 kts 139°
2026-04-24 02:42 43.04044 -81.15784 932 ft 57 kts 135°
2026-04-24 02:42 43.03765 -81.15496 915 ft 0 kts 109°